| time (UTC) | temp C | wind direction | speed KPH | gust KPH | rain 1hr cm | rain 24hr cm | rain mn cm | humidity % | barometer mb |
| 20260505214024 | 15 | 87 | 12.9 | 27.4 | 0.00 | 0.00 | 0.00 | 43 | 1012.7 |
| 20260505213524 | 15 | 106 | 12.9 | 30.6 | 0.00 | 0.00 | 0.00 | 44 | 1013.0 |
| 20260505213035 | 15 | 98 | 14.5 | 30.6 | 0.00 | 0.00 | 0.00 | 43 | 1013.0 |
| 20260505212525 | 16 | 111 | 14.5 | 30.6 | 0.00 | 0.00 | 0.00 | 41 | 1013.2 |
| 20260505212025 | 15 | 41 | 11.3 | 32.2 | 0.00 | 0.00 | 0.00 | 44 | 1013.2 |
| 20260505211609 | 15 | 150 | 12.9 | 32.2 | 0.00 | 0.00 | 0.00 | 43 | 1013.2 |
| 20260505211025 | 15 | 137 | 14.5 | 32.2 | 0.00 | 0.00 | 0.00 | 44 | 1013.4 |
| 20260505210524 | 15 | 123 | 17.7 | 27.4 | 0.00 | 0.00 | 0.00 | 43 | 1013.4 |
| 20260505210041 | 15 | 94 | 9.7 | 27.4 | 0.00 | 0.00 | 0.00 | 44 | 1013.3 |
| 20260505205526 | 15 | 99 | 14.5 | 27.4 | 0.00 | 0.00 | 0.00 | 44 | 1013.5 |
| 20260505205027 | 15 | 71 | 11.3 | 25.7 | 0.00 | 0.00 | 0.00 | 45 | 1013.6 |
| 20260505204553 | 14 | 135 | 12.9 | 38.6 | 0.00 | 0.00 | 0.00 | 46 | 1013.8 |
| 20260505204027 | 14 | 186 | 16.1 | 38.6 | 0.00 | 0.00 | 0.00 | 46 | 1014.0 |
| 20260505203525 | 13 | 136 | 14.5 | 27.4 | 0.00 | 0.00 | 0.00 | 46 | 1014.1 |
| 20260505203035 | 13 | 144 | 12.9 | 32.2 | 0.00 | 0.00 | 0.00 | 46 | 1014.1 |
| 20260505202524 | 14 | 120 | 14.5 | 33.8 | 0.00 | 0.00 | 0.00 | 46 | 1014.2 |
| 20260505202030 | 13 | 177 | 14.5 | 33.8 | 0.00 | 0.00 | 0.00 | 47 | 1014.3 |
| 20260505201542 | 14 | 144 | 14.5 | 29.0 | 0.00 | 0.00 | 0.00 | 48 | 1014.3 |
| 20260505201024 | 14 | 150 | 12.9 | 32.2 | 0.00 | 0.00 | 0.00 | 47 | 1014.2 |
| 20260505200524 | 13 | 110 | 12.9 | 32.2 | 0.00 | 0.00 | 0.00 | 48 | 1014.3 |
| 20260505200039 | 13 | 158 | 14.5 | 32.2 | 0.00 | 0.00 | 0.00 | 50 | 1014.1 |
| 20260505195524 | 13 | 163 | 17.7 | 32.2 | 0.00 | 0.00 | 0.00 | 51 | 1014.1 |
| 20260505195024 | 13 | 178 | 14.5 | 29.0 | 0.00 | 0.00 | 0.00 | 50 | 1014.0 |
| 20260505194538 | 13 | 104 | 14.5 | 29.0 | 0.00 | 0.00 | 0.00 | 50 | 1014.1 |
| 20260505194032 | 12 | 140 | 12.9 | 29.0 | 0.00 | 0.00 | 0.00 | 50 | 1014.1 |
| 20260505193523 | 12 | 139 | 12.9 | 32.2 | 0.00 | 0.00 | 0.00 | 49 | 1014.2 |
| 20260505193037 | 13 | 190 | 12.9 | 32.2 | 0.00 | 0.00 | 0.00 | 49 | 1014.2 |
| 20260505192522 | 13 | 190 | 12.9 | 30.6 | 0.00 | 0.00 | 0.00 | 48 | 1014.1 |
| 20260505192024 | 13 | 161 | 12.9 | 27.4 | 0.00 | 0.00 | 0.00 | 47 | 1014.2 |
| 20260505191536 | 13 | 155 | 8.0 | 27.4 | 0.00 | 0.00 | 0.00 | 46 | 1014.1 |
| 20260505191021 | 13 | 149 | 11.3 | 25.7 | 0.00 | 0.00 | 0.00 | 45 | 1014.2 |
| 20260505190522 | 13 | 117 | 11.3 | 24.1 | 0.00 | 0.00 | 0.00 | 45 | 1014.1 |
| 20260505190035 | 13 | 138 | 11.3 | 27.4 | 0.00 | 0.00 | 0.00 | 44 | 1014.1 |
| 20260505185524 | 13 | 113 | 12.9 | 27.4 | 0.00 | 0.00 | 0.00 | 45 | 1014.1 |
| 20260505185022 | 13 | 105 | 12.9 | 22.5 | 0.00 | 0.00 | 0.00 | 45 | 1014.1 |
| 20260505184542 | 13 | 107 | 9.7 | 22.5 | 0.00 | 0.00 | 0.00 | 43 | 1014.1 |
| 20260505184024 | 13 | 141 | 12.9 | 24.1 | 0.00 | 0.00 | 0.00 | 43 | 1014.2 |
| 20260505183528 | 14 | 121 | 12.9 | 24.1 | 0.00 | 0.00 | 0.00 | 42 | 1014.2 |
| 20260505183038 | 14 | 75 | 9.7 | 22.5 | 0.00 | 0.00 | 0.00 | 40 | 1014.3 |
| 20260505182524 | 14 | 138 | 8.0 | 22.5 | 0.00 | 0.00 | 0.00 | 40 | 1014.2 |
| 20260505182028 | 15 | 99 | 9.7 | 22.5 | 0.00 | 0.00 | 0.00 | 39 | 1014.1 |
| 20260505181555 | 15 | 165 | 4.8 | 19.3 | 0.00 | 0.00 | 0.00 | 38 | 1013.9 |
| 20260505181028 | 15 | 69 | 9.7 | 19.3 | 0.00 | 0.00 | 0.00 | 38 | 1014.1 |
| 20260505180524 | 15 | 62 | 8.0 | 19.3 | 0.00 | 0.00 | 0.00 | 38 | 1014.1 |
| 20260505180037 | 13 | 65 | 4.8 | 19.3 | 0.00 | 0.00 | 0.00 | 38 | 1014.2 |
| 20260505175524 | 13 | 90 | 4.8 | 19.3 | 0.00 | 0.00 | 0.00 | 39 | 1014.3 |
| 20260505175024 | 13 | 173 | 4.8 | 14.5 | 0.00 | 0.00 | 0.00 | 40 | 1014.3 |
| 20260505174538 | 13 | 146 | 6.4 | 12.9 | 0.00 | 0.00 | 0.00 | 39 | 1014.6 |
| 20260505174024 | 13 | 0 | 4.8 | 12.9 | 0.00 | 0.00 | 0.00 | 38 | 1014.7 |
| 20260505173523 | 13 | 78 | 1.6 | 12.9 | 0.00 | 0.00 | 0.00 | 39 | 1014.6 |
| 20260505173036 | 13 | 50 | 3.2 | 14.5 | 0.00 | 0.00 | 0.00 | 39 | 1014.6 |
| 20260505172524 | 13 | 66 | 3.2 | 14.5 | 0.00 | 0.00 | 0.00 | 39 | 1014.6 |
| 20260505172025 | 14 | 108 | 6.4 | 14.5 | 0.00 | 0.00 | 0.00 | 38 | 1014.5 |
| 20260505171542 | 13 | 88 | 1.6 | 14.5 | 0.00 | 0.00 | 0.00 | 39 | 1014.6 |
| 20260505171025 | 13 | 175 | 6.4 | 12.9 | 0.00 | 0.00 | 0.00 | 40 | 1014.6 |
| 20260505170524 | 12 | 0 | 1.6 | 11.3 | 0.00 | 0.00 | 0.00 | 40 | 1014.7 |
| 20260505170038 | 12 | 163 | 4.8 | 16.1 | 0.00 | 0.00 | 0.00 | 40 | 1014.6 |
| 20260505165524 | 12 | 67 | 8.0 | 17.7 | 0.00 | 0.00 | 0.00 | 41 | 1014.8 |
| 20260505165026 | 12 | 145 | 6.4 | 17.7 | 0.00 | 0.00 | 0.00 | 41 | 1014.9 |
| 20260505164538 | 12 | 190 | 4.8 | 12.9 | 0.00 | 0.00 | 0.00 | 42 | 1015.0 |
| 20260505164024 | 12 | 132 | 6.4 | 16.1 | 0.00 | 0.00 | 0.00 | 43 | 1015.0 |
| 20260505163526 | 11 | 131 | 9.7 | 16.1 | 0.00 | 0.00 | 0.00 | 43 | 1015.0 |
| 20260505163035 | 11 | 123 | 6.4 | 17.7 | 0.00 | 0.00 | 0.00 | 44 | 1015.1 |
| 20260505162524 | 11 | 156 | 9.7 | 17.7 | 0.00 | 0.00 | 0.00 | 45 | 1015.1 |
| 20260505162024 | 11 | 148 | 9.7 | 17.7 | 0.00 | 0.00 | 0.00 | 45 | 1015.1 |
| 20260505161548 | 11 | 174 | 8.0 | 17.7 | 0.00 | 0.00 | 0.00 | 46 | 1015.2 |
| 20260505161024 | 11 | 171 | 8.0 | 20.9 | 0.00 | 0.00 | 0.00 | 48 | 1015.2 |
| 20260505160526 | 10 | 183 | 8.0 | 20.9 | 0.00 | 0.00 | 0.00 | 48 | 1015.2 |
| 20260505153044 | 10 | 120 | 8.0 | 32.2 | 0.00 | 0.00 | 0.00 | 49 | 1015.2 |
| 20260505152523 | 10 | 153 | 11.3 | 32.2 | 0.00 | 0.00 | 0.00 | 48 | 1015.3 |
| 20260505152025 | 10 | 183 | 8.0 | 22.5 | 0.00 | 0.00 | 0.00 | 48 | 1015.2 |
| 20260505151536 | 10 | 105 | 9.7 | 22.5 | 0.00 | 0.00 | 0.00 | 47 | 1015.1 |
| 20260505151023 | 10 | 119 | 12.9 | 22.5 | 0.00 | 0.00 | 0.00 | 47 | 1015.2 |
| 20260505150524 | 11 | 111 | 8.0 | 24.1 | 0.00 | 0.00 | 0.00 | 48 | 1015.2 |
| 20260505140526 | 12 | 156 | 11.3 | 22.5 | 0.00 | 0.00 | 0.00 | 45 | 1015.4 |
| 20260505125024 | 9 | 196 | 4.8 | 12.9 | 0.00 | 0.00 | 0.00 | 45 | 1015.4 |
| 20260505124541 | 8 | 188 | 4.8 | 8.0 | 0.00 | 0.00 | 0.00 | 46 | 1015.6 |
| 20260505124026 | 8 | 176 | 1.6 | 8.0 | 0.00 | 0.00 | 0.00 | 45 | 1015.6 |
| 20260505123526 | 8 | 0 | 1.6 | 11.3 | 0.00 | 0.00 | 0.00 | 45 | 1015.6 |
| 20260505123048 | 8 | 191 | 4.8 | 11.3 | 0.00 | 0.00 | 0.00 | 46 | 1015.5 |
| 20260505122524 | 8 | 198 | 0.0 | 8.0 | 0.00 | 0.00 | 0.00 | 45 | 1015.5 |
| 20260505122028 | 8 | 0 | 0.0 | 12.9 | 0.00 | 0.00 | 0.00 | 45 | 1015.3 |
| 20260505121536 | 8 | 198 | 1.6 | 12.9 | 0.00 | 0.00 | 0.00 | 45 | 1015.2 |
| 20260505121026 | 8 | 194 | 4.8 | 12.9 | 0.00 | 0.00 | 0.00 | 45 | 1015.1 |
| 20260505120523 | 8 | 201 | 4.8 | 12.9 | 0.00 | 0.00 | 0.00 | 45 | 1015.0 |
| 20260505115525 | 8 | 213 | 1.6 | 9.7 | 0.00 | 0.00 | 0.00 | 44 | 1014.9 |
| 20260505115101 | 8 | 198 | 1.6 | 4.8 | 0.00 | 0.00 | 0.00 | 44 | 1014.8 |
| 20260505114539 | 8 | 0 | 0.0 | 3.2 | 0.00 | 0.00 | 0.00 | 43 | 1014.9 |
| 20260505114025 | 8 | 0 | 0.0 | 3.2 | 0.00 | 0.00 | 0.00 | 43 | 1015.0 |
| 20260505113525 | 9 | 0 | 0.0 | 6.4 | 0.00 | 0.00 | 0.00 | 42 | 1015.2 |
| 20260505113038 | 9 | 0 | 0.0 | 8.0 | 0.00 | 0.00 | 0.00 | 42 | 1015.2 |
| 20260505112524 | 9 | 192 | 3.2 | 8.0 | 0.00 | 0.00 | 0.00 | 42 | 1015.2 |
| 20260505112025 | 9 | 190 | 3.2 | 8.0 | 0.00 | 0.00 | 0.00 | 42 | 1015.2 |
| 20260505111538 | 10 | 176 | 3.2 | 8.0 | 0.00 | 0.00 | 0.00 | 41 | 1015.1 |
| 20260505111028 | 10 | 185 | 3.2 | 8.0 | 0.00 | 0.00 | 0.00 | 41 | 1015.2 |
| 20260505110525 | 10 | 180 | 3.2 | 6.4 | 0.00 | 0.00 | 0.00 | 41 | 1015.0 |
| 20260505102029 | 10 | 132 | 4.8 | 9.7 | 0.00 | 0.00 | 0.00 | 38 | 1014.7 |
| 20260505101540 | 10 | 178 | 3.2 | 8.0 | 0.00 | 0.00 | 0.00 | 38 | 1014.8 |
| 20260505101025 | 11 | 188 | 1.6 | 4.8 | 0.00 | 0.00 | 0.00 | 39 | 1014.7 |
| 20260505100525 | 11 | 0 | 1.6 | 11.3 | 0.00 | 0.00 | 0.00 | 38 | 1014.6 |
| 20260505100040 | 11 | 181 | 1.6 | 12.9 | 0.00 | 0.00 | 0.00 | 38 | 1014.6 |
| 20260505095523 | 11 | 162 | 4.8 | 12.9 | 0.00 | 0.00 | 0.00 | 38 | 1014.5 |
| 20260505095025 | 11 | 194 | 6.4 | 14.5 | 0.00 | 0.00 | 0.00 | 38 | 1014.6 |
| 20260505094536 | 11 | 172 | 8.0 | 14.5 | 0.00 | 0.00 | 0.00 | 38 | 1014.6 |
| 20260505094025 | 11 | 179 | 4.8 | 12.9 | 0.00 | 0.00 | 0.00 | 37 | 1014.7 |
| 20260505093524 | 11 | 170 | 4.8 | 11.3 | 0.00 | 0.00 | 0.00 | 38 | 1014.8 |
| 20260505093035 | 11 | 196 | 1.6 | 8.0 | 0.00 | 0.00 | 0.00 | 38 | 1014.8 |
| 20260505092526 | 11 | 196 | 3.2 | 9.7 | 0.00 | 0.00 | 0.00 | 38 | 1014.8 |
| 20260505092026 | 11 | 196 | 4.8 | 12.9 | 0.00 | 0.00 | 0.00 | 38 | 1014.7 |
| 20260505091535 | 11 | 194 | 4.8 | 12.9 | 0.00 | 0.00 | 0.00 | 38 | 1014.6 |
| 20260505091025 | 11 | 174 | 4.8 | 12.9 | 0.00 | 0.00 | 0.00 | 37 | 1014.6 |
| 20260505090524 | 11 | 192 | 4.8 | 12.9 | 0.00 | 0.00 | 0.00 | 37 | 1014.9 |
| 20260505090037 | 11 | 0 | 1.6 | 9.7 | 0.00 | 0.00 | 0.00 | 37 | 1014.9 |
| 20260505085526 | 11 | 210 | 1.6 | 9.7 | 0.00 | 0.00 | 0.00 | 36 | 1015.0 |
| 20260505085024 | 11 | 209 | 1.6 | 9.7 | 0.00 | 0.00 | 0.00 | 36 | 1014.9 |
| 20260505084541 | 11 | 207 | 3.2 | 9.7 | 0.00 | 0.00 | 0.00 | 36 | 1015.0 |
| 20260505084024 | 11 | 209 | 1.6 | 8.0 | 0.00 | 0.00 | 0.00 | 36 | 1015.0 |
| 20260505083526 | 11 | 209 | 1.6 | 8.0 | 0.00 | 0.00 | 0.00 | 36 | 1015.0 |
| 20260505083044 | 12 | 0 | 0.0 | 0.0 | 0.00 | 0.00 | 0.00 | 35 | 1015.2 |
| 20260505082526 | 12 | 0 | 0.0 | 4.8 | 0.00 | 0.00 | 0.00 | 35 | 1015.4 |
| 20260505082026 | 12 | 0 | 0.0 | 8.0 | 0.00 | 0.00 | 0.00 | 35 | 1015.6 |
| 20260505081536 | 12 | 183 | 1.6 | 14.5 | 0.00 | 0.00 | 0.00 | 34 | 1015.7 |
| 20260505081029 | 12 | 180 | 3.2 | 16.1 | 0.00 | 0.00 | 0.00 | 34 | 1015.9 |
| 20260505080529 | 12 | 163 | 8.0 | 16.1 | 0.00 | 0.00 | 0.00 | 34 | 1015.8 |
| 20260505080041 | 12 | 186 | 8.0 | 12.9 | 0.00 | 0.00 | 0.00 | 34 | 1015.6 |
| 20260505075523 | 12 | 175 | 4.8 | 11.3 | 0.00 | 0.00 | 0.00 | 35 | 1015.5 |
| 20260505075028 | 12 | 186 | 4.8 | 11.3 | 0.00 | 0.00 | 0.00 | 35 | 1015.5 |
| 20260505074536 | 12 | 184 | 3.2 | 9.7 | 0.00 | 0.00 | 0.00 | 35 | 1015.6 |
| 20260505074023 | 12 | 179 | 4.8 | 9.7 | 0.00 | 0.00 | 0.00 | 35 | 1015.7 |
| 20260505073525 | 12 | 194 | 1.6 | 8.0 | 0.00 | 0.00 | 0.00 | 35 | 1015.6 |
| 20260505073037 | 12 | 0 | 0.0 | 1.6 | 0.00 | 0.00 | 0.00 | 35 | 1015.4 |
| 20260505072525 | 12 | 0 | 0.0 | 3.2 | 0.00 | 0.00 | 0.00 | 35 | 1015.4 |
| 20260505072027 | 12 | 195 | 0.0 | 4.8 | 0.00 | 0.00 | 0.00 | 34 | 1015.2 |
| 20260505071535 | 12 | 195 | 0.0 | 6.4 | 0.00 | 0.00 | 0.00 | 34 | 1015.3 |
| 20260505071026 | 12 | 195 | 1.6 | 9.7 | 0.00 | 0.00 | 0.00 | 33 | 1015.2 |
| 20260505070528 | 13 | 196 | 3.2 | 9.7 | 0.00 | 0.00 | 0.00 | 33 | 1015.3 |
| 20260505070036 | 13 | 193 | 1.6 | 8.0 | 0.00 | 0.00 | 0.00 | 32 | 1015.3 |
| 20260505065524 | 13 | 188 | 3.2 | 9.7 | 0.00 | 0.00 | 0.00 | 32 | 1015.3 |
| 20260505065024 | 13 | 188 | 4.8 | 12.9 | 0.00 | 0.00 | 0.00 | 32 | 1015.3 |
| 20260505064549 | 13 | 138 | 6.4 | 14.5 | 0.00 | 0.00 | 0.00 | 32 | 1015.4 |
| 20260505064024 | 13 | 149 | 6.4 | 17.7 | 0.00 | 0.00 | 0.00 | 31 | 1015.3 |
| 20260505063523 | 13 | 167 | 9.7 | 22.5 | 0.00 | 0.00 | 0.00 | 31 | 1015.2 |
| 20260505063041 | 13 | 164 | 9.7 | 22.5 | 0.00 | 0.00 | 0.00 | 31 | 1015.2 |
| 20260505062526 | 13 | 159 | 8.0 | 19.3 | 0.00 | 0.00 | 0.00 | 31 | 1015.2 |
| 20260505062026 | 14 | 134 | 8.0 | 14.5 | 0.00 | 0.00 | 0.00 | 31 | 1015.3 |
| 20260505061539 | 14 | 146 | 6.4 | 20.9 | 0.00 | 0.00 | 0.00 | 31 | 1015.4 |
| 20260505061025 | 14 | 161 | 8.0 | 20.9 | 0.00 | 0.00 | 0.00 | 31 | 1015.2 |
| 20260505060525 | 14 | 136 | 9.7 | 20.9 | 0.00 | 0.00 | 0.00 | 31 | 1015.4 |
| 20260505060042 | 14 | 180 | 8.0 | 20.9 | 0.00 | 0.00 | 0.00 | 31 | 1015.5 |
| 20260505055524 | 14 | 148 | 9.7 | 24.1 | 0.00 | 0.00 | 0.00 | 32 | 1015.5 |
| 20260505055025 | 14 | 138 | 8.0 | 24.1 | 0.00 | 0.00 | 0.00 | 32 | 1015.5 |
| 20260505054548 | 13 | 150 | 4.8 | 12.9 | 0.00 | 0.00 | 0.00 | 33 | 1015.3 |
| 20260505054025 | 13 | 0 | 1.6 | 9.7 | 0.00 | 0.00 | 0.00 | 34 | 1015.3 |
| 20260505053525 | 13 | 0 | 1.6 | 9.7 | 0.00 | 0.00 | 0.00 | 34 | 1015.2 |
| 20260505053035 | 14 | 0 | 0.0 | 3.2 | 0.00 | 0.00 | 0.00 | 34 | 1015.2 |
| 20260505052522 | 14 | 0 | 0.0 | 3.2 | 0.00 | 0.00 | 0.00 | 34 | 1015.1 |
| 20260505052022 | 14 | 0 | 0.0 | 1.6 | 0.00 | 0.00 | 0.00 | 33 | 1015.2 |
| 20260505051535 | 14 | 0 | 0.0 | 14.5 | 0.00 | 0.00 | 0.00 | 33 | 1015.2 |
| 20260505051025 | 14 | 0 | 0.0 | 14.5 | 0.00 | 0.00 | 0.00 | 33 | 1015.1 |
| 20260505050524 | 14 | 165 | 6.4 | 14.5 | 0.00 | 0.00 | 0.00 | 32 | 1015.2 |
| 20260505041542 | 15 | 0 | 1.6 | 8.0 | 0.00 | 0.00 | 0.00 | 31 | 1015.4 |
| 20260505041023 | 15 | 196 | 3.2 | 9.7 | 0.00 | 0.00 | 0.00 | 30 | 1015.4 |
| 20260505040525 | 15 | 192 | 1.6 | 9.7 | 0.00 | 0.00 | 0.00 | 30 | 1015.4 |
| 20260505040040 | 15 | 190 | 3.2 | 11.3 | 0.00 | 0.00 | 0.00 | 30 | 1015.5 |
| 20260505035526 | 15 | 194 | 3.2 | 11.3 | 0.00 | 0.00 | 0.00 | 29 | 1015.5 |
| 20260505035024 | 15 | 191 | 4.8 | 14.5 | 0.00 | 0.00 | 0.00 | 29 | 1015.5 |
| 20260505034552 | 15 | 209 | 3.2 | 14.5 | 0.00 | 0.00 | 0.00 | 29 | 1015.4 |
| 20260505034025 | 15 | 190 | 6.4 | 14.5 | 0.00 | 0.00 | 0.00 | 28 | 1015.5 |
| 20260505033522 | 15 | 215 | 3.2 | 12.9 | 0.00 | 0.00 | 0.00 | 28 | 1015.3 |
| 20260505033039 | 15 | 171 | 3.2 | 12.9 | 0.00 | 0.00 | 0.00 | 27 | 1015.2 |
| 20260505032525 | 15 | 210 | 6.4 | 12.9 | 0.00 | 0.00 | 0.00 | 27 | 1015.2 |
| 20260505032026 | 15 | 201 | 4.8 | 12.9 | 0.00 | 0.00 | 0.00 | 27 | 1015.2 |
| 20260505031536 | 15 | 192 | 4.8 | 12.9 | 0.00 | 0.00 | 0.00 | 27 | 1015.1 |
| 20260505031023 | 16 | 181 | 3.2 | 12.9 | 0.00 | 0.00 | 0.00 | 26 | 1014.8 |
| 20260505030523 | 16 | 193 | 6.4 | 19.3 | 0.00 | 0.00 | 0.00 | 26 | 1014.8 |
| 20260505030047 | 16 | 202 | 8.0 | 20.9 | 0.00 | 0.00 | 0.00 | 25 | 1014.8 |
| 20260505025528 | 16 | 178 | 9.7 | 22.5 | 0.00 | 0.00 | 0.00 | 25 | 1014.6 |
| 20260505025023 | 16 | 178 | 8.0 | 22.5 | 0.00 | 0.00 | 0.00 | 25 | 1014.8 |
| 20260505024533 | 16 | 176 | 9.7 | 22.5 | 0.00 | 0.00 | 0.00 | 25 | 1014.6 |
| 20260505024024 | 16 | 175 | 8.0 | 17.7 | 0.00 | 0.00 | 0.00 | 25 | 1014.4 |
| 20260505023524 | 16 | 154 | 9.7 | 19.3 | 0.00 | 0.00 | 0.00 | 24 | 1014.3 |
| 20260505023044 | 16 | 184 | 9.7 | 19.3 | 0.00 | 0.00 | 0.00 | 24 | 1014.4 |
| 20260505022525 | 16 | 190 | 8.0 | 22.5 | 0.00 | 0.00 | 0.00 | 23 | 1014.3 |
| 20260505022024 | 16 | 192 | 9.7 | 22.5 | 0.00 | 0.00 | 0.00 | 23 | 1014.3 |
| 20260505021539 | 17 | 196 | 8.0 | 30.6 | 0.00 | 0.00 | 0.00 | 22 | 1014.3 |
| 20260505021026 | 17 | 180 | 14.5 | 33.8 | 0.00 | 0.00 | 0.00 | 22 | 1014.3 |
| 20260505020525 | 17 | 194 | 16.1 | 35.4 | 0.00 | 0.00 | 0.00 | 22 | 1014.3 |
| 20260505020053 | 17 | 192 | 17.7 | 35.4 | 0.00 | 0.00 | 0.00 | 22 | 1014.3 |
| 20260505015525 | 17 | 130 | 11.3 | 33.8 | 0.00 | 0.00 | 0.00 | 21 | 1014.3 |
| 20260505015025 | 17 | 177 | 12.9 | 30.6 | 0.00 | 0.00 | 0.00 | 21 | 1014.3 |
| 20260505014544 | 17 | 165 | 9.7 | 25.7 | 0.00 | 0.00 | 0.00 | 21 | 1014.1 |
| 20260505014024 | 17 | 148 | 12.9 | 37.0 | 0.00 | 0.00 | 0.00 | 20 | 1014.1 |
| 20260505013525 | 17 | 156 | 17.7 | 37.0 | 0.00 | 0.00 | 0.00 | 20 | 1014.0 |
| 20260505013040 | 17 | 171 | 12.9 | 32.2 | 0.00 | 0.00 | 0.00 | 20 | 1014.0 |
| 20260505012527 | 17 | 184 | 16.1 | 29.0 | 0.00 | 0.00 | 0.00 | 20 | 1013.9 |
| 20260505012024 | 17 | 160 | 11.3 | 29.0 | 0.00 | 0.00 | 0.00 | 20 | 1013.8 |
| 20260505011540 | 17 | 154 | 6.4 | 19.3 | 0.00 | 0.00 | 0.00 | 19 | 1013.7 |
| 20260505011023 | 18 | 160 | 9.7 | 32.2 | 0.00 | 0.00 | 0.00 | 19 | 1013.8 |
| 20260505010524 | 18 | 166 | 8.0 | 37.0 | 0.00 | 0.00 | 0.00 | 19 | 1013.8 |
| 20260505010035 | 18 | 189 | 14.5 | 38.6 | 0.00 | 0.00 | 0.00 | 19 | 1013.8 |
| 20260505005524 | 18 | 181 | 19.3 | 38.6 | 0.00 | 0.00 | 0.00 | 19 | 1013.9 |
| 20260505005025 | 18 | 142 | 11.3 | 30.6 | 0.00 | 0.00 | 0.00 | 19 | 1014.0 |
| 20260505004558 | 18 | 167 | 16.1 | 25.7 | 0.00 | 0.00 | 0.00 | 19 | 1014.0 |
| 20260505004024 | 18 | 134 | 14.5 | 32.2 | 0.00 | 0.00 | 0.00 | 19 | 1014.1 |
| 20260505003527 | 18 | 141 | 16.1 | 32.2 | 0.00 | 0.00 | 0.00 | 19 | 1014.1 |
| 20260505003036 | 18 | 142 | 11.3 | 24.1 | 0.00 | 0.00 | 0.00 | 19 | 1014.0 |
| 20260505002525 | 18 | 144 | 12.9 | 33.8 | 0.00 | 0.00 | 0.00 | 19 | 1013.9 |
| 20260505002024 | 18 | 190 | 14.5 | 33.8 | 0.00 | 0.00 | 0.00 | 18 | 1013.9 |
| 20260505001539 | 18 | 161 | 14.5 | 32.2 | 0.00 | 0.00 | 0.00 | 19 | 1014.0 |
| 20260505001029 | 18 | 178 | 16.1 | 32.2 | 0.00 | 0.00 | 0.00 | 19 | 1014.0 |
| 20260505000526 | 18 | 174 | 17.7 | 32.2 | 0.00 | 0.00 | 0.00 | 19 | 1014.2 |
| 20260505000037 | 18 | 161 | 12.9 | 37.0 | 0.00 | 0.00 | 0.00 | 19 | 1014.3 |
| 20260504235525 | 18 | 169 | 16.1 | 37.0 | 0.00 | 0.00 | 0.00 | 19 | 1014.3 |
| 20260504235025 | 18 | 142 | 12.9 | 30.6 | 0.00 | 0.00 | 0.00 | 20 | 1014.2 |
| 20260504234536 | 18 | 166 | 16.1 | 30.6 | 0.00 | 0.00 | 0.00 | 20 | 1014.4 |
| 20260504234023 | 18 | 144 | 11.3 | 22.5 | 0.00 | 0.00 | 0.00 | 20 | 1014.4 |
| 20260504233522 | 18 | 120 | 8.0 | 30.6 | 0.00 | 0.00 | 0.00 | 21 | 1014.3 |
| 20260504233039 | 18 | 141 | 16.1 | 30.6 | 0.00 | 0.00 | 0.00 | 20 | 1014.2 |
| 20260504232523 | 19 | 136 | 16.1 | 27.4 | 0.00 | 0.00 | 0.00 | 20 | 1014.3 |
| 20260504232023 | 19 | 157 | 11.3 | 30.6 | 0.00 | 0.00 | 0.00 | 20 | 1014.1 |
| 20260504231549 | 19 | 170 | 14.5 | 30.6 | 0.00 | 0.00 | 0.00 | 20 | 1014.1 |
| 20260504231023 | 19 | 138 | 16.1 | 30.6 | 0.00 | 0.00 | 0.00 | 20 | 1014.1 |
| 20260504230529 | 19 | 145 | 12.9 | 32.2 | 0.00 | 0.00 | 0.00 | 21 | 1014.2 |
| 20260504230038 | 19 | 188 | 16.1 | 32.2 | 0.00 | 0.00 | 0.00 | 20 | 1014.5 |
| 20260504225524 | 19 | 175 | 14.5 | 35.4 | 0.00 | 0.00 | 0.00 | 20 | 1014.6 |
| 20260504225022 | 19 | 163 | 20.9 | 35.4 | 0.00 | 0.00 | 0.00 | 20 | 1014.6 |
| 20260504224541 | 19 | 159 | 16.1 | 32.2 | 0.00 | 0.00 | 0.00 | 20 | 1014.6 |
| 20260504224025 | 19 | 167 | 12.9 | 25.7 | 0.00 | 0.00 | 0.00 | 20 | 1014.7 |
| 20260504223523 | 18 | 150 | 12.9 | 37.0 | 0.00 | 0.00 | 0.00 | 21 | 1014.6 |
| 20260504223035 | 18 | 159 | 14.5 | 37.0 | 0.00 | 0.00 | 0.00 | 20 | 1014.7 |
| 20260504222524 | 18 | 157 | 20.9 | 37.0 | 0.00 | 0.00 | 0.00 | 20 | 1014.7 |
| 20260504222028 | 18 | 178 | 11.3 | 33.8 | 0.00 | 0.00 | 0.00 | 20 | 1014.9 |
| 20260504221607 | 18 | 158 | 16.1 | 35.4 | 0.00 | 0.00 | 0.00 | 19 | 1014.9 |
| 20260504221024 | 18 | 129 | 17.7 | 35.4 | 0.00 | 0.00 | 0.00 | 19 | 1015.1 |
| 20260504220523 | 19 | 117 | 14.5 | 30.6 | 0.00 | 0.00 | 0.00 | 19 | 1015.2 |
| 20260504220042 | 19 | 114 | 16.1 | 33.8 | 0.00 | 0.00 | 0.00 | 19 | 1015.2 |
| 20260504215527 | 19 | 180 | 14.5 | 40.2 | 0.00 | 0.00 | 0.00 | 19 | 1015.4 |
| 20260504215024 | 19 | 140 | 20.9 | 40.2 | 0.00 | 0.00 | 0.00 | 18 | 1015.4 |
| 20260504214538 | 20 | 122 | 14.5 | 33.8 | 0.00 | 0.00 | 0.00 | 17 | 1015.2 |